[[{"header":{"parameterUnit":"m.s-1","parameterCategory":1,"la1":30.2991,"la2":30.254,"lo1":-89.0895,"lo2":-89.0444,"dy":0.0017,"dx":0.0017,"nx":28,"ny":28,"refTime":"2025-06-18T21:00:00:Z","depth":0,"parameterNumber":2,"parameterNumberName":"U-component_of_WINDS"},"data":[0,0,0,0,0,0,0,0,0,0,0,0,0,0,0,0,0,0,0,0,0,0,0,0,0,0,0,0,0,0,0,0,0,0,0,0,0,0,0,0,0,0,0,0,0,0,0,0,0,0,0,0,0,0,0,0,0,0,-0.173,-0.1729,0,-0.1598,-0.1596,-0.1595,-0.1529,-0.1529,-0.1529,-0.1529,-0.1392,-0.1388,-0.1385,0,0,0,0,0,0,0,0,0,0,0,0,0,-0.1925,-0.1922,-0.173,-0.1729,-0.1727,-0.1598,-0.1596,-0.1594,-0.1529,-0.1529,-0.1529,-0.1528,-0.1393,-0.1389,-0.1384,0,0,0,0,0,0,0,0,0,0,0,0,0,-0.1821,-0.1921,-0.1731,-0.1679,-0.1673,-0.1598,-0.1596,-0.1594,-0.1529,-0.1529,-0.1529,-0.1528,-0.1394,-0.1389,-0.1384,-0.1351,0,0,-0.1367,-0.1365,0,0,0,0,0,0,0,0,-0.1827,-0.1814,-0.1688,-0.1682,-0.1675,-0.158,-0.1615,-0.1512,-0.1529,-0.1583,-0.1529,-0.1528,-0.1454,-0.1444,-0.1419,-0.1344,-0.1339,-0.1367,-0.1363,-0.1361,-0.1359,0,0,0,0,0,0,0,-0.1835,-0.182,-0.1678,-0.1686,-0.1678,-0.1662,-0.1647,-0.1595,-0.1521,-0.1578,-0.1573,-0.1559,-0.1451,-0.1425,-0.1415,-0.1337,-0.1367,-0.1362,-0.1359,-0.1357,-0.1228,-0.1228,0,0,0,0,0,0,-0.185,-0.1826,-0.1682,-0.1674,-0.1753,-0.1658,-0.1642,-0.161,-0.1521,-0.1507,-0.1559,-0.1556,-0.1434,-0.1422,-0.141,-0.1366,-0.1361,-0.1356,-0.1353,-0.1228,-0.1228,-0.1228,0,0,0,0,0,0,-0.1855,-0.1838,-0.1687,-0.1748,-0.1728,-0.1655,-0.162,-0.1608,-0.1581,-0.1506,-0.1492,-0.1546,-0.1433,-0.1418,-0.1366,-0.136,-0.1354,-0.1349,-0.1228,-0.1228,-0.1228,-0.1277,0,0,0,0,0,0,-0.1861,-0.184,-0.1827,-0.1749,-0.1725,-0.1646,-0.162,-0.1605,-0.1572,-0.1568,-0.149,-0.1477,-0.1432,-0.1375,-0.1361,-0.1352,-0.1344,-0.1228,-0.1228,-0.1228,-0.1275,-0.1278,-0.128,0,0,0,0,0,-0.1868,-0.1846,-0.1827,-0.181,-0.1707,-0.1646,-0.1632,-0.1581,-0.1572,-0.1558,-0.151,-0.148,-0.1363,-0.137,-0.1354,-0.1344,-0.1229,-0.1228,-0.1228,-0.1274,-0.1277,-0.128,0,0,0,0,0,0,-0.1925,-0.1835,-0.1813,-0.1765,-0.1714,-0.1635,-0.1616,-0.1586,-0.1536,-0.1534,-0.1472,-0.1455,-0.1409,-0.1371,-0.138,-0.1307,-0.1293,-0.1289,-0.1333,-0.1336,-0.1339,-0.1349,-0.134,0,0,0,0,0,-0.1933,-0.1891,-0.1813,-0.1779,-0.1754,-0.169,-0.1661,-0.1626,-0.157,-0.1548,-0.1496,-0.1442,-0.1394,-0.1363,-0.1314,-0.1269,-0.1251,-0.1255,-0.1257,-0.126,-0.1257,-0.1231,-0.1231,-0.1227,-0.1227,-0.1227,0,0,-0.1947,-0.1892,-0.1869,-0.1789,-0.1745,-0.1702,-0.1672,-0.1628,-0.1596,-0.1541,-0.1489,-0.1449,-0.1385,-0.1337,-0.1313,-0.1304,-0.1255,-0.1259,-0.1262,-0.1258,-0.123,-0.1231,-0.1231,-0.1226,-0.1226,-0.1226,0,0,-0.1951,-0.1906,-0.1872,-0.1829,-0.1763,-0.172,-0.1712,-0.1637,-0.1609,-0.1555,-0.1514,-0.1474,-0.1391,-0.1348,-0.1315,-0.1303,-0.1273,-0.1288,-0.1302,-0.1277,-0.1277,-0.1277,-0.1273,-0.1272,-0.1286,-0.1286,-0.1286,0,-0.1977,-0.1912,-0.1858,-0.1816,-0.1782,-0.1731,-0.1696,-0.1657,-0.1578,-0.1555,-0.1546,-0.1442,-0.1395,-0.1336,-0.1333,-0.1308,-0.1297,-0.1297,-0.1282,-0.1281,-0.128,-0.1275,-0.1274,-0.1289,-0.1288,-0.1288,-0.1288,0,-0.1947,-0.1902,-0.1883,-0.1808,-0.1772,-0.1734,-0.1674,-0.1643,-0.1611,-0.157,-0.1516,-0.1458,-0.1397,-0.138,-0.1349,-0.1316,-0.1313,-0.1294,-0.1278,-0.1284,-0.1278,-0.1276,-0.1292,-0.1291,-0.129,-0.129,0,0,-0.1984,-0.188,-0.1874,-0.184,-0.1763,-0.1727,-0.1687,-0.1627,-0.1601,-0.1549,-0.1513,-0.1445,-0.1426,-0.1389,-0.1352,-0.133,-0.1324,-0.1313,-0.1311,-0.1317,-0.1285,-0.1299,-0.1298,-0.1304,-0.1303,-0.1303,-0.129,0,-0.1978,-0.1903,-0.1853,-0.1798,-0.1755,-0.1706,-0.1671,-0.162,-0.158,-0.1538,-0.1493,-0.1445,-0.1425,-0.1402,-0.1378,-0.133,-0.1317,-0.133,-0.127,-0.1268,-0.1287,-0.1295,-0.131,-0.1301,-0.1287,-0.1287,-0.1286,0,-0.196,-0.1909,-0.185,-0.1778,-0.1758,-0.1727,-0.1668,-0.1628,-0.157,-0.1542,-0.15,-0.1463,-0.1417,-0.1406,-0.1343,-0.1353,-0.1326,-0.1298,-0.1297,-0.1289,-0.1278,-0.1287,-0.1297,-0.1295,-0.1282,-0.1283,-0.1283,0,-0.1993,-0.1909,-0.1863,-0.1835,-0.175,-0.1729,-0.1693,-0.1634,-0.1601,-0.1549,-0.1527,-0.1471,-0.144,-0.1397,-0.1345,-0.1342,-0.1287,-0.1271,-0.1262,-0.1264,-0.1253,-0.1254,-0.1258,-0.1235,-0.1236,-0.1236,-0.1236,0,-0.1991,-0.1956,-0.1877,-0.1848,-0.1808,-0.1751,-0.1713,-0.1672,-0.162,-0.1582,-0.1536,-0.1502,-0.1436,-0.1393,-0.1352,-0.1306,-0.1292,-0.1268,-0.1258,-0.1272,-0.1275,-0.1253,-0.1252,-0.1235,-0.1235,-0.1235,-0.1235,0,-0.2021,-0.1966,-0.1912,-0.1836,-0.1815,-0.1789,-0.1724,-0.1694,-0.1651,-0.1604,-0.159,-0.1523,-0.147,-0.1414,-0.1343,-0.1315,-0.1271,-0.1256,-0.1291,-0.1285,-0.1279,-0.128,-0.1268,-0.1264,-0.1245,-0.1246,-0.1246,0,-0.2023,-0.1995,-0.1916,-0.1887,-0.1852,-0.1807,-0.1773,-0.1716,-0.1682,-0.1613,-0.1592,-0.1536,-0.1488,-0.1407,-0.1351,-0.1296,-0.128,-0.1279,-0.1271,-0.1287,-0.1279,-0.1282,-0.1278,-0.1282,-0.1282,-0.1283,-0.1283,0,-0.2033,-0.2007,-0.196,-0.1903,-0.1864,-0.1817,-0.1768,-0.1747,-0.168,-0.1645,-0.1591,-0.1554,-0.1481,-0.1426,-0.1364,-0.1326,-0.1293,-0.1286,-0.1281,-0.1296,-0.1317,-0.1305,-0.1298,-0.1287,-0.1286,-0.1286,-0.1286,-0.1286,-0.2048,-0.2021,-0.1961,-0.191,-0.1867,-0.1822,-0.1791,-0.1744,-0.1698,-0.1634,-0.1603,-0.1549,-0.149,-0.1404,-0.1367,-0.1324,-0.1314,-0.1307,-0.1305,-0.1304,-0.1307,-0.1324,-0.1312,-0.1312,-0.1312,-0.1312,-0.1312,0,-0.2056,-0.2014,-0.1968,-0.1901,-0.1861,-0.1834,-0.1778,-0.1746,-0.1699,-0.1647,-0.1601,-0.1539,-0.1485,-0.1426,-0.1369,-0.1345,-0.1329,-0.1332,-0.1333,-0.1325,-0.132,-0.133,-0.1346,-0.1346,-0.1346,-0.1346,-0.1346,-0.1346,-0.2055,-0.2007,-0.1975,-0.1905,-0.1864,-0.1811,-0.1781,-0.1739,-0.1698,-0.163,-0.1586,-0.1547,-0.1492,-0.143,-0.138,-0.1364,-0.1345,-0.1352,-0.1332,-0.1328,-0.1325,-0.1323,-0.1332,-0.1349,-0.1349,-0.1341,-0.1341,-0.1341]},{"header":{"parameterUnit":"m.s-1","parameterCategory":1,"la1":30.2991,"la2":30.254,"lo1":-89.0895,"lo2":-89.0444,"dy":0.0017,"dx":0.0017,"nx":28,"ny":28,"refTime":"2025-06-18T21:00:00:Z","depth":0,"parameterNumber":3,"parameterNumberName":"V-component_of_WINDS"},"data":[0,0,0,0,0,0,0,0,0,0,0,0,0,0,0,0,0,0,0,0,0,0,0,0,0,0,0,0,0,0,0,0,0,0,0,0,0,0,0,0,0,0,0,0,0,0,0,0,0,0,0,0,0,0,0,0,0,0,4.3424,4.3424,0,4.3409,4.3409,4.3409,4.3399,4.3399,4.3399,4.3399,4.338,4.338,4.3379,0,0,0,0,0,0,0,0,0,0,0,0,0,4.3442,4.3442,4.3424,4.3424,4.3423,4.3409,4.3409,4.3408,4.3399,4.3399,4.3399,4.3399,4.338,4.338,4.3379,0,0,0,0,0,0,0,0,0,0,0,0,0,4.3431,4.3441,4.3424,4.3417,4.3416,4.3409,4.3409,4.3408,4.3399,4.3399,4.3399,4.3399,4.338,4.338,4.3379,4.3376,0,0,4.3377,4.3377,0,0,0,0,0,0,0,0,4.3432,4.343,4.3418,4.3417,4.3417,4.3406,4.3408,4.3398,4.3399,4.3405,4.3399,4.3399,4.3388,4.3387,4.3384,4.3376,4.3375,4.3377,4.3376,4.3376,4.3376,0,0,0,0,0,0,0,4.3432,4.3431,4.3418,4.3418,4.3417,4.3414,4.3412,4.3406,4.3397,4.3405,4.3404,4.3403,4.3388,4.3385,4.3384,4.3374,4.3377,4.3376,4.3376,4.3376,4.3364,4.3364,0,0,0,0,0,0,4.3435,4.3432,4.3418,4.3417,4.3424,4.3414,4.3412,4.3409,4.3397,4.3396,4.3403,4.3402,4.3386,4.3385,4.3383,4.338,4.3376,4.3376,4.3375,4.3364,4.3364,4.3364,0,0,0,0,0,0,4.3435,4.3434,4.3419,4.3424,4.3422,4.3413,4.3411,4.3409,4.3406,4.3396,4.3394,4.3401,4.3386,4.3384,4.3379,4.3379,4.3375,4.3375,4.3364,4.3364,4.3364,4.3374,0,0,0,0,0,0,4.3436,4.3434,4.3433,4.3424,4.3422,4.3415,4.3411,4.3409,4.3405,4.3405,4.3394,4.3392,4.3386,4.338,4.3378,4.3378,4.3374,4.3364,4.3364,4.3364,4.3373,4.3374,4.3375,0,0,0,0,0,4.3436,4.3435,4.3433,4.3432,4.3421,4.3415,4.3414,4.3407,4.3405,4.3404,4.3398,4.3393,4.338,4.3379,4.3377,4.3377,4.3364,4.3364,4.3364,4.3373,4.3374,4.3375,0,0,0,0,0,0,4.3443,4.3434,4.3431,4.3428,4.3423,4.3414,4.3412,4.3408,4.3403,4.3402,4.3393,4.3391,4.3387,4.3381,4.3381,4.3375,4.3371,4.3371,4.3378,4.3379,4.338,4.3381,4.3374,0,0,0,0,0,4.3444,4.3441,4.3433,4.3431,4.3428,4.3421,4.3418,4.3414,4.3407,4.3405,4.3398,4.3391,4.3386,4.3382,4.3377,4.3373,4.337,4.3372,4.3373,4.3373,4.3373,4.3371,4.3372,4.3365,4.3365,4.3365,0,0,4.3446,4.3441,4.3439,4.3432,4.3427,4.3424,4.3419,4.3415,4.3412,4.3404,4.3399,4.3394,4.3386,4.3382,4.3379,4.3377,4.3375,4.3374,4.3374,4.3373,4.3372,4.3372,4.3373,4.3365,4.3365,4.3365,0,0,4.3448,4.3444,4.3442,4.3438,4.3432,4.3427,4.3427,4.3419,4.3415,4.3411,4.3405,4.3401,4.3391,4.3386,4.3383,4.3385,4.338,4.3383,4.3387,4.3385,4.3386,4.3386,4.3387,4.3388,4.3383,4.3383,4.3383,0,4.345,4.3446,4.3441,4.3438,4.3435,4.3429,4.3427,4.3423,4.3415,4.3412,4.341,4.34,4.3394,4.3389,4.3389,4.3386,4.3385,4.3384,4.3386,4.3387,4.3387,4.3388,4.3388,4.3383,4.3383,4.3383,4.3383,0,4.345,4.3447,4.3446,4.344,4.3437,4.3434,4.3428,4.3426,4.3422,4.3418,4.3413,4.3406,4.34,4.3398,4.3394,4.3393,4.3392,4.3388,4.3384,4.3388,4.3389,4.3389,4.3384,4.3384,4.3384,4.3384,0,0,4.3454,4.3447,4.3446,4.3444,4.3438,4.3435,4.3432,4.3427,4.3425,4.342,4.3418,4.3411,4.3408,4.3404,4.3399,4.3398,4.3401,4.3395,4.3394,4.3396,4.34,4.3402,4.3403,4.3398,4.3398,4.3398,4.3401,0,4.3455,4.3451,4.3447,4.3444,4.3441,4.3436,4.3434,4.343,4.3426,4.3423,4.3418,4.3413,4.341,4.3408,4.3406,4.3401,4.3401,4.34,4.3395,4.3395,4.3397,4.3403,4.3405,4.3408,4.3401,4.3401,4.3401,0,4.3455,4.3452,4.3449,4.3445,4.3443,4.3441,4.3437,4.3434,4.3429,4.3427,4.3423,4.3419,4.3415,4.3412,4.3408,4.3408,4.3405,4.3402,4.3402,4.3401,4.3398,4.3402,4.3409,4.3409,4.3401,4.3401,4.3401,0,4.3459,4.3454,4.3452,4.345,4.3444,4.3443,4.3441,4.3436,4.3433,4.3429,4.3428,4.3423,4.342,4.3417,4.3411,4.341,4.3407,4.3404,4.3405,4.3405,4.3404,4.3404,4.341,4.3403,4.3403,4.3403,4.3403,0,4.346,4.3459,4.3454,4.3452,4.3451,4.3446,4.3445,4.3441,4.3438,4.3435,4.3431,4.3428,4.3421,4.3418,4.3414,4.3411,4.341,4.3407,4.3406,4.3408,4.3408,4.3405,4.3405,4.3403,4.3403,4.3403,4.3403,0,4.3464,4.346,4.3458,4.3453,4.3452,4.3451,4.3447,4.3445,4.3442,4.344,4.3439,4.3433,4.3429,4.3424,4.3418,4.3415,4.3413,4.3411,4.3415,4.3414,4.3416,4.3416,4.342,4.3421,4.3413,4.3413,4.3413,0,4.3464,4.3464,4.346,4.3458,4.3456,4.3454,4.3452,4.3448,4.3446,4.3442,4.3441,4.3437,4.3434,4.3429,4.3424,4.3419,4.3417,4.3419,4.3416,4.3418,4.3417,4.3418,4.3418,4.342,4.342,4.342,4.342,0,4.3467,4.3465,4.3463,4.3461,4.346,4.3457,4.3455,4.3454,4.3449,4.3447,4.3444,4.3442,4.3437,4.3434,4.343,4.3426,4.3422,4.3421,4.3421,4.3423,4.3425,4.3424,4.3417,4.3421,4.3421,4.3421,4.3421,4.3421,4.3469,4.3468,4.3466,4.3464,4.3462,4.346,4.3459,4.3456,4.3454,4.3451,4.3448,4.3446,4.3442,4.3436,4.3433,4.343,4.3429,4.3429,4.3428,4.3428,4.3429,4.3426,4.343,4.343,4.3429,4.3429,4.3429,0,4.3471,4.3469,4.3468,4.3465,4.3464,4.3462,4.346,4.3459,4.3457,4.3454,4.3452,4.3449,4.3446,4.3441,4.3438,4.3437,4.3435,4.3436,4.3436,4.3436,4.3431,4.3431,4.3438,4.3438,4.3438,4.3438,4.3438,4.3438,4.3472,4.3471,4.347,4.3468,4.3466,4.3465,4.3463,4.3462,4.346,4.3457,4.3455,4.3453,4.345,4.3446,4.3444,4.3442,4.3441,4.3443,4.3441,4.3437,4.3436,4.3435,4.3435,4.3443,4.3443,4.3446,4.3446,4.3446]}]]